QZS-4 (MICHIBIKI-4)

Last updated on Sun Nov 02 2025 00:02:50 GMT+0000 (Coordinated Universal Time)

1 42965U 17062A 25304.49518273 -.00000291 00000+0 00000+0 0 9996 2 42965 40.2503 346.4157 0751818 270.4648 100.3333 1.00265118 29517
UTC large
Height (km)
Speed (km/s)
/
Latitude / Longitude
Inclination (degrees)
Orbital Period (minutes)
Azimuth
Elevation
Range (km)
Doppler Factor

Next 0 passes for location: London (51.5072 / 0.1276)

Sorry there are no passes over London.